When you browse on this site, cookies collect data to enhance your experience and personalize the content and advertising you see.
Visit our Privacy Policy to learn more. By continuing to use the site, you agree to this use of cookies and data.
  • In Hungary
  • List of Countries
  • For 7 days
  • Water Temperature
  • Weather Map
  • News
  • Weather Widgets
  • user-avatar
    Login

    Hourly Weather Nehryntsi

    Today, 16 December, Monday

    Time Temperature Precipitation Wind Pressure Humidity
    00:00 +6°C° 0 mm 4 mps 750 mmHg 61%
    01:00 +7°C° 0 mm 3 mps 750 mmHg 60%
    02:00 +7°C° 0 mm 3 mps 750 mmHg 59%
    03:00 +7°C° 0 mm 3 mps 750 mmHg 59%
    04:00 +7°C° 0 mm 2 mps 750 mmHg 58%
    05:00 +7°C° 0 mm 2 mps 750 mmHg 58%
    06:00 +7°C° 0 mm 2 mps 751 mmHg 59%
    07:00 +7°C° 0 mm 1 mps 751 mmHg 60%
    08:00 +7°C° 0 mm 1 mps 751 mmHg 61%
    09:00 +8°C° 0 mm 1 mps 752 mmHg 59%
    10:00 +10°C° 0 mm 1 mps 752 mmHg 57%
    11:00 +11°C° 0 mm 1 mps 753 mmHg 55%
    12:00 +11°C° 0 mm 1 mps 752 mmHg 55%
    13:00 +12°C° 0 mm 1 mps 752 mmHg 55%
    14:00 +13°C° 0 mm 1 mps 752 mmHg 54%
    15:00 +12°C° 0 mm 1 mps 752 mmHg 58%
    16:00 +11°C° 0 mm 1 mps 753 mmHg 62%
    17:00 +10°C° 0 mm 1 mps 753 mmHg 65%
    18:00 +10°C° 0 mm 1 mps 753 mmHg 67%
    19:00 +9°C° 0 mm 1 mps 753 mmHg 68%
    20:00 +8°C° 0 mm 2 mps 753 mmHg 69%
    21:00 +8°C° 0 mm 2 mps 753 mmHg 71%
    22:00 +7°C° 0 mm 2 mps 753 mmHg 73%
    23:00 +7°C° 0 mm 2 mps 753 mmHg 75%

    Tomorrow, 17 December, Tuesday

    Time Temperature Precipitation Wind Pressure Humidity
    00:00 +7°C° 0 mm 2 mps 753 mmHg 76%
    01:00 +7°C° 0 mm 2 mps 753 mmHg 77%
    02:00 +6°C° 0 mm 2 mps 753 mmHg 79%
    03:00 +6°C° 0 mm 2 mps 753 mmHg 80%
    04:00 +6°C° 0 mm 2 mps 752 mmHg 80%
    05:00 +6°C° 0 mm 2 mps 752 mmHg 81%
    06:00 +6°C° 0 mm 2 mps 752 mmHg 81%
    07:00 +5°C° 0 mm 2 mps 752 mmHg 82%
    08:00 +4°C° 0 mm 3 mps 752 mmHg 82%
    09:00 +5°C° 0 mm 3 mps 752 mmHg 77%
    10:00 +8°C° 0 mm 3 mps 752 mmHg 71%
    11:00 +9°C° 0 mm 3 mps 752 mmHg 65%
    12:00 +10°C° 0 mm 2 mps 751 mmHg 62%
    13:00 +12°C° 0 mm 2 mps 751 mmHg 59%
    14:00 +12°C° 0 mm 2 mps 751 mmHg 57%
    15:00 +10°C° 0 mm 2 mps 751 mmHg 60%
    16:00 +9°C° 0 mm 2 mps 751 mmHg 64%
    17:00 +8°C° 0 mm 2 mps 751 mmHg 68%
    18:00 +8°C° 0 mm 2 mps 751 mmHg 67%
    19:00 +8°C° 0 mm 2 mps 751 mmHg 67%
    20:00 +8°C° 0 mm 2 mps 751 mmHg 67%
    21:00 +8°C° 0 mm 2 mps 751 mmHg 67%
    22:00 +8°C° 0 mm 2 mps 751 mmHg 66%
    23:00 +8°C° 0 mm 2 mps 751 mmHg 65%

    Day after tomorrow, 18 December, Wednesday

    Time Temperature Precipitation Wind Pressure Humidity
    00:00 +7°C° 0 mm 2 mps 751 mmHg 65%
    01:00 +7°C° 0 mm 2 mps 751 mmHg 66%
    02:00 +7°C° 0 mm 2 mps 751 mmHg 66%
    03:00 +7°C° 0 mm 2 mps 751 mmHg 65%
    04:00 +7°C° 0 mm 2 mps 751 mmHg 65%
    05:00 +8°C° 0 mm 1 mps 751 mmHg 64%
    06:00 +8°C° 0 mm 1 mps 751 mmHg 63%
    07:00 +8°C° 0 mm 1 mps 752 mmHg 62%
    08:00 +8°C° 0 mm 1 mps 752 mmHg 60%
    09:00 +9°C° 0 mm 1 mps 752 mmHg 56%
    10:00 +11°C° 0 mm 1 mps 752 mmHg 52%
    11:00 +12°C° 0 mm 1 mps 752 mmHg 48%
    12:00 +13°C° 0 mm 1 mps 752 mmHg 46%
    13:00 +14°C° 0 mm 1 mps 752 mmHg 45%
    14:00 +14°C° 0 mm 0 mps 752 mmHg 44%
    15:00 +13°C° 0 mm 0 mps 752 mmHg 46%
    16:00 +12°C° 0 mm 0 mps 752 mmHg 48%
    17:00 +10°C° 0 mm 0 mps 752 mmHg 50%
    18:00 +11°C° 0 mm 1 mps 753 mmHg 51%
    19:00 +11°C° 0 mm 1 mps 753 mmHg 52%
    20:00 +10°C° 0 mm 1 mps 753 mmHg 53%
    21:00 +10°C° 0 mm 1 mps 753 mmHg 54%
    22:00 +9°C° 0 mm 1 mps 753 mmHg 55%
    23:00 +8°C° 0 mm 0 mps 753 mmHg 56%

    19 December, Thursday

    Time Temperature Precipitation Wind Pressure Humidity
    00:00 +8°C° 0 mm 0 mps 753 mmHg 57%
    01:00 +7°C° 0 mm 0 mps 753 mmHg 58%
    02:00 +7°C° 0 mm 0 mps 753 mmHg 59%
    03:00 +7°C° 0 mm 0 mps 753 mmHg 60%
    04:00 +7°C° 0 mm 0 mps 753 mmHg 61%
    05:00 +6°C° 0 mm 0 mps 753 mmHg 62%
    06:00 +6°C° 0 mm 0 mps 753 mmHg 63%
    07:00 +6°C° 0 mm 0 mps 753 mmHg 64%
    08:00 +5°C° 0 mm 0 mps 753 mmHg 66%
    09:00 +6°C° 0 mm 0 mps 753 mmHg 62%
    10:00 +7°C° 0 mm 0 mps 754 mmHg 59%
    11:00 +8°C° 0 mm 0 mps 754 mmHg 55%
    12:00 +10°C° 0 mm 1 mps 753 mmHg 54%
    13:00 +10°C° 0 mm 1 mps 753 mmHg 54%
    14:00 +11°C° 0 mm 1 mps 753 mmHg 53%
    15:00 +10°C° 0 mm 1 mps 753 mmHg 57%
    16:00 +9°C° 0 mm 1 mps 753 mmHg 61%
    17:00 +8°C° 0 mm 1 mps 753 mmHg 65%
    18:00 +8°C° 0 mm 1 mps 752 mmHg 67%
    19:00 +7°C° 0 mm 1 mps 752 mmHg 69%
    20:00 +7°C° 0 mm 1 mps 752 mmHg 72%
    21:00 +7°C° 0 mm 1 mps 752 mmHg 74%
    22:00 +6°C° 0 mm 2 mps 752 mmHg 77%
    23:00 +6°C° 0 mm 2 mps 752 mmHg 80%

    20 December, Friday

    Time Temperature Precipitation Wind Pressure Humidity
    00:00 +6°C° 0 mm 2 mps 751 mmHg 83%
    01:00 +5°C° 0 mm 2 mps 751 mmHg 86%
    02:00 +5°C° 0 mm 2 mps 750 mmHg 89%
    03:00 +4°C° 0 mm 3 mps 750 mmHg 90%
    04:00 +4°C° 0 mm 3 mps 750 mmHg 91%
    05:00 +3°C° 0 mm 3 mps 749 mmHg 92%
    06:00 +3°C° 0 mm 3 mps 749 mmHg 92%
    07:00 +3°C° 0 mm 3 mps 749 mmHg 93%
    08:00 +3°C° 0 mm 3 mps 748 mmHg 93%
    09:00 +3°C° 0 mm 3 mps 748 mmHg 90%
    10:00 +4°C° 0 mm 3 mps 748 mmHg 87%
    11:00 +5°C° 0 mm 4 mps 748 mmHg 84%
    12:00 +5°C° 0 mm 3 mps 748 mmHg 84%
    13:00 +5°C° 0 mm 3 mps 747 mmHg 83%
    14:00 +5°C° 0 mm 3 mps 747 mmHg 82%
    15:00 +6°C° 0 mm 2 mps 747 mmHg 85%
    16:00 +7°C° 0 mm 1 mps 747 mmHg 87%
    17:00 +5°C° 0 mm 0 mps 747 mmHg 89%
    18:00 +5°C° 0 mm 0 mps 747 mmHg 90%
    19:00 +5°C° 0 mm 0 mps 747 mmHg 91%
    20:00 +4°C° 0 mm 0 mps 747 mmHg 92%
    21:00 +4°C° 0 mm 0 mps 747 mmHg 92%
    22:00 +5°C° 0 mm 1 mps 747 mmHg 92%
    23:00 +5°C° 0 mm 1 mps 747 mmHg 92%

    21 December, Saturday

    Time Temperature Precipitation Wind Pressure Humidity
    00:00 +4°C° 0 mm 1 mps 747 mmHg 91%
    01:00 +4°C° 0 mm 1 mps 746 mmHg 91%
    02:00 +4°C° 0 mm 1 mps 746 mmHg 90%
    03:00 +4°C° 0 mm 1 mps 746 mmHg 90%
    04:00 +4°C° 0 mm 1 mps 746 mmHg 89%
    05:00 +3°C° 0 mm 2 mps 746 mmHg 89%
    06:00 +3°C° 0 mm 2 mps 746 mmHg 89%
    07:00 +3°C° 0 mm 2 mps 746 mmHg 89%
    08:00 +3°C° 0 mm 2 mps 746 mmHg 89%
    09:00 +3°C° 0 mm 3 mps 745 mmHg 84%
    10:00 +3°C° 0 mm 4 mps 745 mmHg 80%
    11:00 +4°C° 0 mm 4 mps 745 mmHg 75%
    12:00 +5°C° 0 mm 4 mps 744 mmHg 72%
    13:00 +6°C° 0 mm 5 mps 744 mmHg 69%
    14:00 +6°C° 0 mm 5 mps 744 mmHg 66%
    15:00 +6°C° 0 mm 4 mps 744 mmHg 69%
    16:00 +5°C° 0 mm 4 mps 744 mmHg 72%
    17:00 +5°C° 0 mm 3 mps 743 mmHg 75%
    18:00 +4°C° 0 mm 3 mps 743 mmHg 78%
    19:00 +4°C° 0 mm 3 mps 744 mmHg 80%
    20:00 +4°C° 0 mm 2 mps 744 mmHg 82%
    21:00 +4°C° 0 mm 2 mps 743 mmHg 85%
    22:00 +4°C° 0 mm 2 mps 743 mmHg 87%
    23:00 +4°C° 0 mm 2 mps 743 mmHg 90%
    Show more